{"data":{"norad_id":63013,"intl_designator":"2025-032J","name":"STARLINK-11577 [DTC]","alt_names":[],"object_type":"PAYLOAD","status":"ACTIVE","operator":null,"country":"US","launch_date":"2025-02-15","launch_site_code":"AFETR","launch_vehicle":null,"mission":null,"orbit_class":"UNKNOWN","rcs_meters":null,"size_class":null,"mass_kg":null,"dimensions":null,"purposes":["comms"],"wikipedia_slug":null,"has_3d_model":false,"image_url":null,"decayed_at":null,"tle_current":{"epoch":"2026-09-21T21:53:59.080704Z","epoch_age_seconds":43047,"freshness":"FRESH","line1":"1 63013U 25032J   26264.91248936  .00113126  00000+0  87272-3 0  9999","line2":"2 63013  43.0000  92.6556 0001675 265.1586  94.9091 15.70851876 93076","mean_motion":15.70851876,"eccentricity":0.0001675,"inclination_deg":43,"raan_deg":92.6556,"arg_perigee_deg":265.1586,"mean_anomaly_deg":94.9091,"bstar":0.00087272,"rev_number":9307,"period_min":91.670005428316,"perigee_km":355.33307276703,"apogee_km":357.58916313654,"semimajor_km":6734.5981179518,"source":"CELESTRAK","updated_at":"2026-09-22T09:00:49.740313Z"}}}